Time,TemperatureF,DewpointF,PressureIn,WindDirection,WindDirectionDegrees,WindSpeedMPH,WindSpeedGustMPH,Humidity,HourlyPrecipIn,Conditions,Clouds,dailyrainin,SoftwareType,DateUTC
2013-11-27 03:26:00,50.6,50.1,29.49,SW,236,1.0,-999.0,98,0.24,,,0.32,WeatherSnoop3.0,2013-11-27 08:26:00,
2013-11-27 09:10:00,48.2,46.8,29.39,NW,311,0.0,-999.0,95,0.00,,,1.13,WeatherSnoop3.0,2013-11-27 14:10:00,
2013-11-27 09:14:00,47.5,46.4,29.42,NW,311,0.0,-999.0,96,0.00,,,1.15,WeatherSnoop3.0,2013-11-27 14:14:00,
2013-11-27 09:15:00,47.5,46.4,29.42,NW,310,0.0,-999.0,96,0.00,,,1.15,WeatherSnoop3.0,2013-11-27 14:15:00,
2013-11-27 09:20:00,47.4,46.3,29.43,NW,310,0.0,-999.0,96,0.14,,,1.16,WeatherSnoop3.0,2013-11-27 14:20:00,
2013-11-27 09:21:00,47.4,46.3,29.43,NW,310,0.0,-999.0,96,0.14,,,1.16,WeatherSnoop3.0,2013-11-27 14:21:00,
2013-11-27 09:26:00,47.3,46.2,29.43,NNW,339,1.0,-999.0,96,0.32,,,1.18,WeatherSnoop3.0,2013-11-27 14:26:00,
2013-11-27 09:29:00,47.2,46.1,29.43,NNW,339,0.0,-999.0,96,0.16,,,1.19,WeatherSnoop3.0,2013-11-27 14:29:00,
2013-11-27 09:34:00,47.1,46.0,29.43,NNW,339,0.0,-999.0,96,0.24,,,1.21,WeatherSnoop3.0,2013-11-27 14:34:00,
2013-11-27 09:40:00,47.0,45.9,29.41,North,355,0.0,-999.0,96,0.12,,,1.22,WeatherSnoop3.0,2013-11-27 14:40:00,
2013-11-27 09:46:00,46.9,45.8,29.40,North,355,0.0,-999.0,96,0.07,,,1.23,WeatherSnoop3.0,2013-11-27 14:46:00,
2013-11-27 09:52:00,46.9,45.8,29.41,North,355,0.0,-999.0,96,0.07,,,1.23,WeatherSnoop3.0,2013-11-27 14:52:00,
2013-11-27 09:57:00,46.8,45.7,29.41,North,355,0.0,-999.0,96,0.05,,,1.24,WeatherSnoop3.0,2013-11-27 14:57:00,
2013-11-27 10:02:00,46.7,45.6,29.40,North,355,1.0,-999.0,96,0.05,,,1.24,WeatherSnoop3.0,2013-11-27 15:02:00,
2013-11-27 10:07:00,46.6,45.5,29.40,North,355,0.0,-999.0,96,0.05,,,1.24,WeatherSnoop3.0,2013-11-27 15:07:00,
2013-11-27 10:12:00,46.5,45.4,29.39,North,355,0.0,-999.0,96,0.04,,,1.24,WeatherSnoop3.0,2013-11-27 15:12:00,
2013-11-27 10:17:00,46.5,45.4,29.40,North,355,0.0,-999.0,96,0.00,,,1.25,WeatherSnoop3.0,2013-11-27 15:17:00,
2013-11-27 10:22:00,46.4,45.3,29.41,North,355,0.0,-999.0,96,0.17,,,1.26,WeatherSnoop3.0,2013-11-27 15:22:00,
2013-11-27 10:27:00,46.4,45.3,29.41,North,355,0.0,-999.0,96,0.08,,,1.27,WeatherSnoop3.0,2013-11-27 15:27:00,
2013-11-27 10:32:00,46.3,45.2,29.41,NNW,334,0.0,-999.0,96,0.13,,,1.28,WeatherSnoop3.0,2013-11-27 15:32:00,
2013-11-27 10:37:00,46.1,45.0,29.40,NNW,334,0.0,-999.0,96,0.10,,,1.28,WeatherSnoop3.0,2013-11-27 15:37:00,
2013-11-27 10:42:00,46.0,44.9,29.40,NNW,334,0.0,-999.0,96,0.21,,,1.30,WeatherSnoop3.0,2013-11-27 15:42:00,
2013-11-27 10:47:00,46.0,44.9,29.40,WSW,242,0.0,-999.0,96,0.08,,,1.30,WeatherSnoop3.0,2013-11-27 15:47:00,
2013-11-27 10:52:00,45.9,44.8,29.38,WSW,242,0.0,-999.0,96,0.08,,,1.31,WeatherSnoop3.0,2013-11-27 15:52:00,
2013-11-27 10:57:00,45.9,44.8,29.40,WSW,242,0.0,-999.0,96,0.06,,,1.31,WeatherSnoop3.0,2013-11-27 15:57:00,
2013-11-27 11:03:00,46.0,45.2,29.40,NW,319,1.0,-999.0,97,0.05,,,1.32,WeatherSnoop3.0,2013-11-27 16:03:00,
2013-11-27 11:08:00,46.0,45.2,29.39,NW,313,1.0,-999.0,97,0.05,,,1.32,WeatherSnoop3.0,2013-11-27 16:08:00,
2013-11-27 11:13:00,46.0,45.2,29.39,NE,35,2.0,-999.0,97,0.05,,,1.32,WeatherSnoop3.0,2013-11-27 16:13:00,
2013-11-27 11:18:00,45.9,44.8,29.38,NNW,344,2.0,-999.0,96,0.04,,,1.33,WeatherSnoop3.0,2013-11-27 16:18:00,
2013-11-27 11:23:00,45.8,44.7,29.35,East,92,2.0,-999.0,96,0.16,,,1.34,WeatherSnoop3.0,2013-11-27 16:23:00,
2013-11-27 11:28:00,45.7,44.6,29.35,North,355,2.0,-999.0,96,0.09,,,1.34,WeatherSnoop3.0,2013-11-27 16:28:00,
2013-11-27 11:33:00,45.5,44.4,29.39,NNW,338,2.0,-999.0,96,0.05,,,1.34,WeatherSnoop3.0,2013-11-27 16:33:00,
2013-11-27 11:38:00,45.3,44.0,29.39,NE,37,3.0,-999.0,95,0.04,,,1.34,WeatherSnoop3.0,2013-11-27 16:38:00,
2013-11-27 11:43:00,45.2,43.9,29.38,NE,42,2.0,-999.0,95,0.00,,,1.34,WeatherSnoop3.0,2013-11-27 16:43:00,
2013-11-27 11:49:00,45.0,43.7,29.38,NW,323,3.0,-999.0,95,0.00,,,1.34,WeatherSnoop3.0,2013-11-27 16:49:00,
2013-11-27 11:54:00,44.8,43.5,29.38,NW,316,0.0,-999.0,95,0.00,,,1.34,WeatherSnoop3.0,2013-11-27 16:54:00,
2013-11-27 11:59:00,44.7,43.4,29.40,NNW,333,1.0,-999.0,95,0.00,,,1.34,WeatherSnoop3.0,2013-11-27 16:59:00,
2013-11-27 12:04:00,44.6,43.3,29.40,NNW,334,1.0,-999.0,95,0.00,,,1.34,WeatherSnoop3.0,2013-11-27 17:04:00,
2013-11-27 12:09:00,44.4,43.1,29.40,NNW,338,0.0,-999.0,95,0.00,,,1.35,WeatherSnoop3.0,2013-11-27 17:09:00,
2013-11-27 12:14:00,44.3,43.0,29.40,North,355,2.0,-999.0,95,0.00,,,1.35,WeatherSnoop3.0,2013-11-27 17:14:00,
2013-11-27 12:19:00,44.1,42.8,29.40,NNE,19,2.0,-999.0,95,0.00,,,1.35,WeatherSnoop3.0,2013-11-27 17:19:00,
2013-11-27 12:24:00,44.0,42.7,29.39,NNW,342,2.0,-999.0,95,0.00,,,1.35,WeatherSnoop3.0,2013-11-27 17:24:00,
2013-11-27 12:29:00,43.8,42.5,29.39,NNE,28,2.0,-999.0,95,0.00,,,1.35,WeatherSnoop3.0,2013-11-27 17:29:00,
2013-11-27 12:34:00,43.6,42.3,29.40,NNW,344,0.0,-999.0,95,0.00,,,1.35,WeatherSnoop3.0,2013-11-27 17:34:00,
2013-11-27 12:39:00,43.3,42.0,29.41,NNW,333,2.0,-999.0,95,0.00,,,1.35,WeatherSnoop3.0,2013-11-27 17:39:00,
2013-11-27 12:44:00,43.0,41.4,29.40,NNW,330,1.0,-999.0,94,0.00,,,1.35,WeatherSnoop3.0,2013-11-27 17:44:00,
2013-11-27 12:49:00,42.9,41.3,29.39,NNE,15,2.0,-999.0,94,0.00,,,1.36,WeatherSnoop3.0,2013-11-27 17:49:00,
2013-11-27 12:54:00,42.7,41.4,29.40,NW,317,0.0,-999.0,95,0.00,,,1.36,WeatherSnoop3.0,2013-11-27 17:54:00,
2013-11-27 12:59:00,42.5,41.2,29.40,North,355,0.0,-999.0,95,0.00,,,1.36,WeatherSnoop3.0,2013-11-27 17:59:00,
2013-11-27 13:04:00,42.4,40.8,29.39,NW,307,0.0,-999.0,94,0.00,,,1.36,WeatherSnoop3.0,2013-11-27 18:04:00,
2013-11-27 13:09:00,42.2,40.9,29.40,NW,309,2.0,-999.0,95,0.00,,,1.36,WeatherSnoop3.0,2013-11-27 18:09:00,
2013-11-27 13:14:00,42.0,40.7,29.39,NW,312,2.0,-999.0,95,0.00,,,1.36,WeatherSnoop3.0,2013-11-27 18:14:00,
2013-11-27 13:19:00,41.9,40.6,29.39,NW,326,0.0,-999.0,95,0.00,,,1.36,WeatherSnoop3.0,2013-11-27 18:19:00,
2013-11-27 13:24:00,41.9,40.6,29.39,NNW,335,0.0,-999.0,95,0.00,,,1.36,WeatherSnoop3.0,2013-11-27 18:24:00,
2013-11-27 13:29:00,41.8,40.5,29.40,NNW,342,1.0,-999.0,95,0.00,,,1.36,WeatherSnoop3.0,2013-11-27 18:29:00,
2013-11-27 13:34:00,41.7,40.4,29.39,North,11,2.0,-999.0,95,0.00,,,1.36,WeatherSnoop3.0,2013-11-27 18:34:00,
2013-11-27 13:39:00,41.6,40.3,29.39,North,360,2.0,-999.0,95,0.00,,,1.36,WeatherSnoop3.0,2013-11-27 18:39:00,
2013-11-27 13:44:00,41.4,40.1,29.38,NNW,342,0.0,-999.0,95,0.00,,,1.37,WeatherSnoop3.0,2013-11-27 18:44:00,
2013-11-27 13:49:00,41.3,40.0,29.38,NNW,327,0.0,-999.0,95,0.09,,,1.38,WeatherSnoop3.0,2013-11-27 18:49:00,
2013-11-27 13:54:00,41.3,40.0,29.38,NW,313,2.0,-999.0,95,0.09,,,1.38,WeatherSnoop3.0,2013-11-27 18:54:00,
2013-11-27 13:59:00,41.2,39.6,29.39,NW,305,1.0,-999.0,94,0.06,,,1.38,WeatherSnoop3.0,2013-11-27 18:59:00,
2013-11-27 14:04:00,41.1,39.8,29.39,NW,305,0.0,-999.0,95,0.04,,,1.38,WeatherSnoop3.0,2013-11-27 19:04:00,
2013-11-27 14:09:00,41.1,39.8,29.41,NE,49,0.0,-999.0,95,0.00,,,1.38,WeatherSnoop3.0,2013-11-27 19:09:00,
2013-11-27 14:14:00,41.0,39.7,29.43,NNW,332,3.0,-999.0,95,0.00,,,1.38,WeatherSnoop3.0,2013-11-27 19:14:00,
2013-11-27 14:19:00,40.9,39.6,29.41,NNW,332,0.0,-999.0,95,0.00,,,1.39,WeatherSnoop3.0,2013-11-27 19:19:00,
2013-11-27 14:24:00,40.9,39.6,29.40,NNW,342,0.0,-999.0,95,0.00,,,1.39,WeatherSnoop3.0,2013-11-27 19:24:00,
2013-11-27 14:29:00,40.8,39.5,29.39,NNW,342,1.0,-999.0,95,0.10,,,1.40,WeatherSnoop3.0,2013-11-27 19:29:00,
2013-11-27 14:34:00,40.7,39.4,29.37,NNW,342,0.0,-999.0,95,0.07,,,1.40,WeatherSnoop3.0,2013-11-27 19:34:00,
2013-11-27 14:39:00,40.7,39.4,29.37,NNW,342,0.0,-999.0,95,0.07,,,1.40,WeatherSnoop3.0,2013-11-27 19:39:00,
2013-11-27 14:44:00,40.7,39.4,29.37,NNW,342,0.0,-999.0,95,0.07,,,1.40,WeatherSnoop3.0,2013-11-27 19:44:00,
2013-11-27 14:49:00,40.7,39.4,29.37,NNW,342,0.0,-999.0,95,0.07,,,1.40,WeatherSnoop3.0,2013-11-27 19:49:00,
2013-11-27 14:54:00,40.7,39.4,29.37,NNW,342,0.0,-999.0,95,0.07,,,1.40,WeatherSnoop3.0,2013-11-27 19:54:00,
2013-11-27 14:59:00,40.7,39.4,29.37,NNW,342,0.0,-999.0,95,0.07,,,1.40,WeatherSnoop3.0,2013-11-27 19:59:00,
2013-11-27 15:04:00,40.7,39.4,29.37,NNW,342,0.0,-999.0,95,0.07,,,1.40,WeatherSnoop3.0,2013-11-27 20:04:00,
2013-11-27 15:10:00,40.7,39.4,29.37,NNW,342,0.0,-999.0,95,0.07,,,1.40,WeatherSnoop3.0,2013-11-27 20:10:00,
2013-11-27 15:16:00,40.7,39.4,29.37,NNW,342,0.0,-999.0,95,0.07,,,1.40,WeatherSnoop3.0,2013-11-27 20:16:00,
2013-11-27 15:22:00,40.7,39.4,29.37,NNW,342,0.0,-999.0,95,0.07,,,1.40,WeatherSnoop3.0,2013-11-27 20:22:00,
2013-11-27 15:27:00,40.7,39.4,29.37,NNW,342,0.0,-999.0,95,0.07,,,1.40,WeatherSnoop3.0,2013-11-27 20:27:00,